Regional Weather Roundup
Issued by NWS

Home | Current Version | Previous Version | Graphics & Text | Print | Product List | Glossary On
Versions: 1 2 3 4 5 6 7 8 9 10 11 12 13 14 15 16 17 18 19 20 21 22 23 24 25 26 27 28 29 30 31 32 33 34 35 36 37 38 39 40 41 42 43 44 45 46 47 48 49 50
000
ASUS43 KMKX 031100
RWRWI

WISCONSIN REGIONAL WEATHER ROUNDUP
NATIONAL WEATHER SERVICE MILWAUKEE/SULLIVAN WI
600 AM CDT MON AUG 03 2015

NOTE: "FAIR" INDICATES FEW OR NO CLOUDS BELOW 12,000 FEET WITH NO
SIGNIFICANT WEATHER AND/OR OBSTRUCTIONS TO VISIBILITY.

WIZ001-002-006>008-014>016-023>028-031200-
NORTHWEST WISCONSIN

CITY           SKY/WX    TMP DP  RH WIND       PRES   REMARKS
SUPERIOR ARPT  PTCLDY    51  47  86 NW12      29.79R
ASHLAND        CLEAR     54  48  80 SW6       29.78R
HAYWARD        CLEAR     49  45  86 S3        29.82S
SIREN          CLEAR     54  48  82 W5        29.84S
CUMBERLAND     CLEAR     50  46  87 W3        29.84S
RICE LAKE      CLEAR     52  48  85 CALM      29.86R
CHETEK         CLEAR     57  48  72 W5        29.84S
LADYSMITH      CLEAR     55  50  82 W6        29.84R
EAU CLAIRE     NOT AVBL
MENOMONIE      CLEAR     57  51  78 W3        29.85S
NEW RICHMOND   CLEAR     53  50  90 CALM      29.86S
OSCEOLA        CLEAR     52  52 100 CALM      29.88F
$$

WIZ003>005-009-010-017-018-031200-
NORTH CENTRAL WISCONSIN

CITY           SKY/WX    TMP DP  RH WIND       PRES   REMARKS
MANITOWISH WTR CLEAR     51  50  95 W5        29.78S
ARBOR VITAE    CLEAR     56  53  88 CALM      29.78S
WOODRUFF       CLEAR     56  53  88 CALM      29.78S
RHINELANDER    CLEAR     50  48  93 W7        29.80R
EAGLE RIVER    MOCLDY    52  47  82 W5        29.77R
LAND O LAKES   CLOUDY    56  48  76 W5        29.77S
PHILLIPS       CLEAR     51  49  92 CALM      29.80R
TOMAHAWK       CLEAR     49  47  93 CALM      29.81R
MEDFORD        CLEAR     52  48  87 W6        29.82R
MERRILL        NOT AVBL
$$

WIZ029-030-035-036-043>047-031200-
CENTRAL WISCONSIN

CITY           SKY/WX    TMP DP  RH WIND       PRES   REMARKS
WAUSAU         CLEAR     57  50  77 NW9       29.79R
MOSINEE        NOT AVBL
MARSHFIELD     CLEAR     54  47  77 NW6       29.83R
STEVENS POINT  CLEAR     56  50  80 W3        29.82R
WAUPACA        CLEAR     60  56  85 W5        29.80R
WAUTOMA        NOT AVBL
WISC RAPIDS    CLEAR     56  49  77 W7        29.83R
CAMP DOUGLAS   NOT AVBL
$$

WIZ011>013-019>022-031-037>040-048>050-031200-
NORTHEAST WISCONSIN

CITY           SKY/WX    TMP DP  RH WIND       PRES   REMARKS
ANTIGO         PTCLDY    51  50  96 W5        29.80R
SHAWANO        CLEAR     58  54  86 W5        29.78R
OCONTO         MOCLDY    56  56 100 W6        29.75R
STURGEON BAY   CLEAR     59  52  77 NW6       29.77R
GREEN BAY      CLEAR     57  55  93 W8        29.77R
MANITOWOC      NOT AVBL
APPLETON       PTCLDY    55  54  94 W9        29.79R
CLINTONVILLE   CLEAR     55  52  88 CALM      29.78S
OSHKOSH        CLEAR     59  53  80 W5        29.79R
$$

WIZ032>034-041-042-053>061-031200-
SOUTHWEST WISCONSIN

CITY           SKY/WX    TMP DP  RH WIND       PRES   REMARKS
LA CROSSE      CLEAR     59  53  80 SE3       29.86R
SPARTA         CLEAR     48  47  93 CALM      29.86R
VIROQUA        CLEAR     57  50  78 W6        29.88R
BOSCOBEL       CLEAR     55  53  93 CALM      29.87R FOG
PRAIRIE DU CHI CLEAR     60  56  85 CALM      29.87R
PLATTEVILLE    CLEAR     60  56  85 N5        29.86S
$$

WIZ056-057-062-063-064-067-068-031200-
SOUTH CENTRAL WISCONSIN

CITY           SKY/WX    TMP DP  RH WIND       PRES   REMARKS
REEDSBURG      CLEAR     59  52  77 NW5       29.85R
BARABOO/DELLS  CLEAR     57  50  75 CALM      29.84S
LONE ROCK      NOT AVBL
MINERAL POINT  CLEAR     61  54  77 NW5       29.86S
MADISON        PTCLDY    63  54  72 CALM      29.83R
MIDDLETON      CLEAR     60  55  83 CALM      29.85R
WATERTOWN      CLEAR     58  58 100 CALM      29.81R
MONROE         CLEAR     63  55  77 NW8       29.84R
JANESVILLE     CLEAR     63  59  88 NW5       29.82R
$$

WIZ051-052-058>065-066-070>072-031200-
SOUTHEAST WISCONSIN

CITY           SKY/WX    TMP DP  RH WIND       PRES   REMARKS
MILWAUKEE      PTCLDY    67  57  70 NW6       29.79R
WAUKESHA       CLEAR     61  57  88 W9        29.81R
MILWAUKEE/TIMM CLEAR     61  54  77 NW6       29.79R
RACINE         MOCLDY    64  60  87 W6        29.81R
BURLINGTON     CLEAR     58  56  92 NW6       29.80R
KENOSHA        MOCLDY    64  61  90 NW6       29.80R
FOND DU LAC    CLEAR     60  54  80 W8        29.80R
SHEBOYGAN      CLEAR     61  58  90 W6        29.79R
WEST BEND      CLEAR     59  55  88 W5        29.80R
JUNEAU         CLEAR     61  56  83 W3        29.82R
$$

LSZ147-162-031200-
LAKE SUPERIOR

STATION/POSITION TIME  TEMP    WIND        PRES    WAVE
                       AIR SEA DIR/SP/G            HT/PER
                 (UTC) (F)     (DEG/KT/KT) (MB)    (FT/S)
W MID LAKE BUOY  0950   58 55  260/ 10/ 12 1005.9S   1/ 3
DEVILS ISLAND    1000   60     260/ 18/ 22 1007.0R
PORT WING        1040   58     220/  7/  9 1008.8R
SAXON HARBOR     1000   60                 1007.5
$$

LMZ867-665-643>646-031200-
LAKE MICHIGAN

STATION/POSITION TIME  TEMP    WIND        PRES    WAVE
                       AIR SEA DIR/SP/G            HT/PER
                 (UTC) (F)     (DEG/KT/KT) (MB)    (FT/S)
CHAMBERS ISLAND  1000   61     270/  3/ 10 1006.4R
S GREEN BAY BUOY 1000   61 63  290/ 12/ 14 1008.3R
N MID LAKE BUOY  0950   65 68  290/ 14/ 14 1005.0R   2/ 3
NORTHPORT PIER   1000   63     280/  5/  9 1006.1R
SISTER BAY       1048   64     320/ 21/ 23   N/A
ALGOMA LAKESHORE 1012           CALM  /  3   N/A
KEWAUNEE LAKESHO 1000   60     290/  4/  5 1006.6R
SHEBOYGAN LAKESH 1000   65     290/ 11/ 13 1007.6R
PORT WASHINGTON  1040   64     300/  8/ 11 1009.1R
ATWATER BUOY     1000   63 62  290/ 10/ 12 1009.3R
MILWAUKEE LAKESH 1000   67     310/  8/ 12   N/A
KENOSHA   LAKESH 1000   68     280/  8/ 10 1008.1R
$$

TC  - TEMPERATURE IN CELSIUS
VSB - VISIBILITY IN STATUTE MILES
WCI - WIND CHILL INDEX
HX  - HEAT INDEX




USA.gov is the U.S. government's official web portal to all federal, state and local government web resources and services.